Phoenix Deer Valley, AZ

6:41 AM MST on November 21, 2019 (GMT -0700)
Phoenix-Deer Valley Municipal

Weather History for KDVT - September, 2019

Change the Weather History Date:

Wednesday, September 4, 2019

  Actual Average Record
Temperature  
Mean Temperature 97 °F -  
Max Temperature 107 °F 97 °F 107 °F (1997)
Min Temperature 87 °F 76 °F 69 °F (1999)
Cooling Degree Days 32    
Growing Degree Days 47 (Base 50)    
Moisture  
Dew Point 56 °F    
Average Humidity 26    
Maximum Humidity 36    
Minimum Humidity 16    
Precipitation  
Precipitation 0.00 in - - ()
Sea Level Pressure  
Sea Level Pressure 29.76 in    
Wind  
Wind Speed 7 mph ()    
Max Wind Speed 24 mph    
Max Gust Speed 34 mph    
Visibility 10.0 miles    
Events Rain , Thunderstorm    
Averages and records for this station are not official NWS values.
T = Trace of Precipitation, MM = Missing Value Source: Averaged Metar Reports

Daily Weather History Graph

Daily Weather History Graph

Search for Another Location

Airport or City:

Astronomy

Sep. 04, 2019 Rise Set
Actual Time 6:04 AM MST 6:50 PM MST
Civil Twilight 5:38 AM MST 7:15 PM MST
Nautical Twilight 5:08 AM MST 7:45 PM MST
Astronomical Twilight 4:38 AM MST 8:15 PM MST
Moon 11:52 AM MST (9/4) 10:45 PM MST (9/4)
Length of Visible Light 13h 36m
Length of Day
12h 45m
Waxing Crescent, 36% of the Moon is Illuminated
Sep 4
Waxing Crescent
Sep 5
First Quarter
Sep 13
Full
Sep 21
Last Quarter
Sep 28
New

Hourly Weather History & Observations

Time (MST) Temp. Heat Index Dew Point Humidity Pressure Visibility Wind Dir Wind Speed Gust Speed Precip Events Conditions
12:53 AM 93.9 °F 91.4 °F 53.1 °F 25% 29.71 in 10.0 mi NNE 8.1 mph - N/A   Clear
1:53 AM 91.9 °F 89.5 °F 53.1 °F 27% 29.71 in 10.0 mi East 3.5 mph - N/A   Clear
2:53 AM 91.0 °F 88.7 °F 54.0 °F 28% 29.72 in 10.0 mi East 4.6 mph - N/A   Clear
3:53 AM 91.0 °F 90.0 °F 57.9 °F 33% 29.73 in 10.0 mi ESE 11.5 mph - N/A   Clear
4:53 AM 89.1 °F 88.2 °F 59.0 °F 36% 29.74 in 10.0 mi East 8.1 mph - N/A   Clear
5:53 AM 87.1 °F 85.7 °F 55.9 °F 35% 29.76 in 10.0 mi Calm Calm - N/A   Clear
6:53 AM 88.0 °F 86.5 °F 55.9 °F 34% 29.77 in 10.0 mi Calm Calm - N/A   Clear
7:53 AM 91.0 °F 90.5 °F 60.1 °F 35% 29.78 in 10.0 mi ESE 6.9 mph - N/A   Clear
8:53 AM 96.1 °F 95.2 °F 57.9 °F 28% 29.80 in 10.0 mi SSE 8.1 mph - N/A   Clear
9:53 AM 96.1 °F 96.0 °F 60.1 °F 30% 29.80 in 10.0 mi South 9.2 mph - N/A   Clear
10:53 AM 100.0 °F 100.2 °F 59.0 °F 26% 29.80 in 10.0 mi SSE 9.2 mph - N/A   Clear
11:53 AM 102.9 °F 102.4 °F 57.0 °F 22% 29.78 in 10.0 mi SE 10.4 mph 19.6 mph N/A   Clear
12:53 PM 106.0 °F 105.1 °F 55.9 °F 19% 29.76 in 10.0 mi SSE 12.7 mph - N/A   Clear
1:04 PM 105.1 °F 104.4 °F 55.9 °F 20% 29.85 in 10.0 mi South 9.2 mph 21.9 mph N/A   Clear
1:53 PM 106.0 °F 105.1 °F 55.0 °F 19% 29.74 in 10.0 mi Variable 6.9 mph 19.6 mph N/A   Clear
2:53 PM 107.1 °F - 51.1 °F 16% 29.71 in 10.0 mi SW 13.8 mph 23.0 mph N/A   Clear
3:53 PM 107.1 °F - 52.0 °F 16% 29.69 in 10.0 mi SW 12.7 mph 18.4 mph N/A   Clear
4:53 PM 107.1 °F - 52.0 °F 16% 29.67 in 10.0 mi South 8.1 mph - N/A   Clear
5:53 PM 106.0 °F - 52.0 °F 17% 29.68 in 10.0 mi Calm Calm - N/A   Clear
6:53 PM 105.1 °F - 51.1 °F 16% 29.69 in 10.0 mi WSW 6.9 mph - N/A   Clear
7:27 PM 95.0 °F 95.2 °F 61.0 °F 32% 29.82 in 10.0 mi South 24.2 mph 34.5 mph 0.00 in Rain , Thunderstorm Light Rain
7:46 PM 95.0 °F 94.0 °F 57.9 °F 29% 29.81 in 10.0 mi WSW 12.7 mph - 0.00 in Thunderstorm Partly Cloudy
7:53 PM 96.1 °F 94.5 °F 55.9 °F 26% 29.73 in 10.0 mi West 10.4 mph - 0.00 in Thunderstorm Partly Cloudy
8:03 PM 96.1 °F 94.8 °F 57.0 °F 27% 29.81 in 10.0 mi NW 4.6 mph - N/A   Clear
8:53 PM 97.0 °F - 52.0 °F 22% 29.73 in 10.0 mi NNE 6.9 mph - N/A   Clear
9:53 PM 96.1 °F 94.1 °F 55.0 °F 25% 29.77 in 10.0 mi Calm Calm - N/A   Clear
10:53 PM 93.0 °F 92.0 °F 57.9 °F 31% 29.80 in 10.0 mi SW 11.5 mph - N/A   Clear
11:53 PM 91.9 °F 91.5 °F 60.1 °F 34% 29.81 in 10.0 mi West 5.8 mph - N/A   Clear